Regional Weather Roundup
Issued by NWS

Home | Current Version | Previous Version | Graphics & Text | Print | Product List | Glossary On
Versions: 1 2 3 4 5 6 7 8 9 10 11 12 13 14 15 16 17 18 19 20 21 22 23 24 25 26 27 28 29 30 31 32 33 34 35 36 37 38 39 40 41 42 43 44 45 46 47 48 49 50
000
ASUS43 KBIS 252320
RWRND

NORTH DAKOTA REGIONAL WEATHER ROUNDUP
NATIONAL WEATHER SERVICE BISMARCK ND
500 PM CST THU DEC 25 2014

NOTE: "FAIR" INDICATES FEW OR NO CLOUDS BELOW 12,000 FEET WITH NO
SIGNIFICANT WEATHER AND/OR OBSTRUCTIONS TO VISIBILITY.


NDZ001>003-009>011-017-260000-
NORTHWEST NORTH DAKOTA

CITY           SKY/WX    TMP DP  RH WIND       PRES   REMARKS
WILLISTON      CLOUDY    23  16  74 NW14      29.97R WCI  11
MINOT          CLOUDY    24  18  77 NW16      29.90R WCI  11
MINOT AFB      CLOUDY    25  23  93 NW15      29.91R WCI  12
$$

NDZ018>021-031>035-040>046-260000-
SOUTHWEST NORTH DAKOTA

CITY           SKY/WX    TMP DP  RH WIND       PRES   REMARKS
BISMARCK       CLOUDY    28  21  75 NW10      29.90R WCI  19
DICKINSON      CLOUDY    24  17  74 N15       29.88R WCI  11
GARRISON         N/A     25  20  81 NW14      29.89R WCI  13
HETTINGER ARPT CLOUDY    23  18  81 N20       29.89R WCI   8
$$

NDZ004>008-012>016-024-026-027-054-260000-
NORTHEAST NORTH DAKOTA

CITY           SKY/WX    TMP DP  RH WIND       PRES   REMARKS
GRAND FORKS    CLOUDY    27  23  85 N8        29.89R WCI  19
GRND FRKS AFB  MIX PCPN  27  27 100 N8        29.89R WCI  18
DEVILS LAKE    CLOUDY    27  21  80 N8        29.88R WCI  18
$$

NDZ022-023-025-028>030-036>039-047>053-260000-
SOUTHEAST NORTH DAKOTA

CITY           SKY/WX    TMP DP  RH WIND       PRES   REMARKS
FARGO          CLOUDY    30  24  78 N10       29.87R
JAMESTOWN      CLOUDY    27  21  78 N16       29.85R WCI  15
$$




USA.gov is the U.S. government's official web portal to all federal, state and local government web resources and services.